Radiation Dose measured at exhaust stack monitor of Fukushima Daiichi Nuclear Power Station
Date,Time,Unit 5 6 shared exhaust cylinders,Wind Direction,Wind Velocity(m/s)
2024/03/04,00:00,3.6,west,6.0
2024/03/04,00:10,3.7,west,4.1
2024/03/04,00:20,3.8,west,2.6
2024/03/04,00:30,3.9,west,2.3
2024/03/04,00:40,3.9,west-northwest,2.3
2024/03/04,00:50,3.8,west-northwest,3.4
2024/03/04,01:00,3.9,west-northwest,3.8
2024/03/04,01:10,3.9,west-northwest,4.0
2024/03/04,01:20,3.8,west-northwest,5.2
2024/03/04,01:30,3.8,west-northwest,4.8
2024/03/04,01:40,3.8,west,4.8
2024/03/04,01:50,3.8,west,5.0
2024/03/04,02:00,3.7,west,5.7
2024/03/04,02:10,3.9,west,5.8
2024/03/04,02:20,3.7,west-northwest,5.0
2024/03/04,02:30,3.8,west-northwest,4.8
2024/03/04,02:40,3.9,northwest,3.6
2024/03/04,02:50,3.7,west-northwest,4.5
2024/03/04,03:00,3.9,west-northwest,4.3
2024/03/04,03:10,3.9,northwest,2.5
2024/03/04,03:20,3.8,north-northwest,2.5
2024/03/04,03:30,3.8,northwest,1.9
2024/03/04,03:40,3.9,northwest,1.4
2024/03/04,03:50,3.8,northwest,1.9
2024/03/04,04:00,3.9,northwest,3.2
2024/03/04,04:10,3.9,northwest,4.4
2024/03/04,04:20,3.9,northwest,5.8
2024/03/04,04:30,3.9,northwest,6.3
2024/03/04,04:40,3.8,northwest,6.2
2024/03/04,04:50,3.8,northwest,6.7
2024/03/04,05:00,3.8,northwest,6.8
2024/03/04,05:10,3.9,north-northwest,6.9
2024/03/04,05:20,3.7,northwest,7.9
2024/03/04,05:30,3.8,northwest,8.2
2024/03/04,05:40,3.8,northwest,9.5
2024/03/04,05:50,3.7,northwest,7.6
2024/03/04,06:00,3.7,northwest,8.6
2024/03/04,06:10,3.8,northwest,9.2
2024/03/04,06:20,3.7,northwest,9.7
2024/03/04,06:30,3.6,northwest,10.0
2024/03/04,06:40,3.9,northwest,8.4
2024/03/04,06:50,3.7,northwest,8.1
2024/03/04,07:00,3.8,northwest,8.9
2024/03/04,07:10,4.0,northwest,9.7
2024/03/04,07:20,3.8,northwest,9.2
2024/03/04,07:30,3.7,northwest,8.5
2024/03/04,07:40,3.9,northwest,9.3
2024/03/04,07:50,3.8,northwest,7.7
2024/03/04,08:00,3.7,northwest,9.2
2024/03/04,08:10,3.8,northwest,7.1
2024/03/04,08:20,3.6,north-northwest,8.3
2024/03/04,08:30,3.9,northwest,8.8
2024/03/04,08:40,4.0,northwest,7.6
2024/03/04,08:50,3.7,northwest,9.2
2024/03/04,09:00,3.9,northwest,5.7
2024/03/04,09:10,3.8,north-northwest,6.3
2024/03/04,09:20,3.9,north,5.4
2024/03/04,09:30,3.8,north,6.1
2024/03/04,09:40,3.7,north,5.7
2024/03/04,09:50,3.8,north,3.9
2024/03/04,10:00,3.7,northwest,2.2
2024/03/04,10:10,3.9,west-northwest,7.1
2024/03/04,10:20,3.9,northwest,6.4
2024/03/04,10:30,3.9,northwest,6.8
2024/03/04,10:40,3.8,west-northwest,4.9
2024/03/04,10:50,3.8,west-northwest,3.5
2024/03/04,11:00,3.9,west-northwest,2.0
2024/03/04,11:10,3.8,northwest,0.6
2024/03/04,11:20,3.8,west,6.4
2024/03/04,11:30,3.8,west,6.8
2024/03/04,11:40,3.8,west,7.3
2024/03/04,11:50,3.7,west-northwest,7.8
2024/03/04,12:00,3.6,west,7.6
2024/03/04,12:10,3.9,west,8.3
2024/03/04,12:20,3.8,west-southwest,9.8
2024/03/04,12:30,3.9,west,7.9
2024/03/04,12:40,3.6,west-northwest,9.9
2024/03/04,12:50,3.8,west,8.0
2024/03/04,13:00,3.6,west,10.2
2024/03/04,13:10,3.8,west-southwest,8.5
2024/03/04,13:20,3.9,west-northwest,9.3
2024/03/04,13:30,3.9,west,9.8
2024/03/04,13:40,3.8,west-southwest,8.2
2024/03/04,13:50,3.7,west-northwest,7.0
2024/03/04,14:00,3.6,west,9.1
2024/03/04,14:10,3.9,west,12.0
2024/03/04,14:20,3.7,west,10.8
2024/03/04,14:30,3.6,west,12.2
2024/03/04,14:40,3.8,west,10.6
2024/03/04,14:50,3.7,west,10.0
2024/03/04,15:00,3.8,west-northwest,11.4
2024/03/04,15:10,3.8,west-northwest,8.0
2024/03/04,15:20,3.9,north-northwest,11.9
2024/03/04,15:30,3.8,northwest,7.0
2024/03/04,15:40,3.9,north-northwest,8.8
2024/03/04,15:50,3.8,northwest,6.9
2024/03/04,16:00,3.8,northwest,5.3
2024/03/04,16:10,3.7,northwest,5.8
2024/03/04,16:20,3.8,west-northwest,4.8
2024/03/04,16:30,4.0,west-northwest,5.0
2024/03/04,16:40,3.7,northwest,3.5
2024/03/04,16:50,3.8,west-northwest,1.5
2024/03/04,17:00,3.8,northwest,2.0
2024/03/04,17:10,3.8,north,3.3
2024/03/04,17:20,3.6,north,2.3
2024/03/04,17:30,3.8,north-northeast,1.9
2024/03/04,17:40,3.7,north,1.9
2024/03/04,17:50,3.8,northwest,1.9
2024/03/04,18:00,3.8,north-northwest,1.8
2024/03/04,18:10,3.8,west-northwest,1.5
2024/03/04,18:20,3.7,west,0.8
2024/03/04,18:30,3.9,west-northwest,1.2
2024/03/04,18:40,3.8,north-northwest,1.9
2024/03/04,18:50,3.6,northwest,2.3
2024/03/04,19:00,3.6,north-northwest,2.3
2024/03/04,19:10,3.7,north-northwest,3.3
2024/03/04,19:20,3.8,north-northwest,3.3
2024/03/04,19:30,3.6,northwest,2.2
2024/03/04,19:40,3.8,northwest,2.5
2024/03/04,19:50,3.8,northwest,2.6
2024/03/04,20:00,3.9,west-northwest,3.7
2024/03/04,20:10,3.9,northwest,2.5
2024/03/04,20:20,3.8,northwest,3.7
2024/03/04,20:30,3.7,northwest,4.3
2024/03/04,20:40,3.7,northwest,5.1
2024/03/04,20:50,3.6,northwest,5.2
2024/03/04,21:00,3.7,northwest,4.4
2024/03/04,21:10,3.6,northwest,3.6
2024/03/04,21:20,3.7,northwest,4.8
2024/03/04,21:30,3.7,northwest,4.4
2024/03/04,21:40,3.9,northwest,4.3
2024/03/04,21:50,3.7,northwest,4.6
2024/03/04,22:00,3.7,northwest,3.7
2024/03/04,22:10,3.7,northwest,3.2
2024/03/04,22:20,3.9,northwest,1.9
2024/03/04,22:30,3.6,north-northwest,2.0
2024/03/04,22:40,3.8,north-northwest,2.3
2024/03/04,22:50,3.8,north-northwest,2.6
2024/03/04,23:00,3.6,north-northwest,3.0
2024/03/04,23:10,3.8,north-northwest,4.1
2024/03/04,23:20,3.8,north-northwest,3.7
2024/03/04,23:30,3.8,north-northwest,4.1
2024/03/04,23:40,3.8,north-northwest,4.1
2024/03/04,23:50,3.8,north-northwest,4.7
